SCP
0 0 0 -0 0 0 0 0 0 0 0 0 0 0 0 0 0 0 0 0 0 0 0 0 0 0 0 0 0 0 0 0 -0 -0 -0 -0 0 0 0 0 0 0 -0 -0 -0 -0 -0 -0 -0
0 0 0 -0 0 0 0 0 0 0 0 0 0 0 0 0 0 0 0 0 0 0 0 0 0 0 0 0 0 0 0 0 0 -0 0 0 0 0 0 0 0 0 0 -0 -0 -0 -0 -0 -0
0 0 0 -0 0 -0 -0 0 0 0 0 0 0 0 0 0 0 0 0 0 0 0 0 0 0 0 0 0 0 0 0 0 0 0 0 0 0 0 0 0 0 0 0 0 0 0 -0 -0 -0
0 0 0 0 -0 -0 -0 -0 0 0 0 0 0 0 0 0 0 0 0 0 0 0 0 0 0 0 0 0 0 0 0 0 0 0 0 0 0 0 0 0 0 0 0 0 0 0 0 0 0
0 0 0 -0 -0 -0 -0 -0 0 0 0 0 0 0 0 0 0 0 0 0 0 0 0 0 0 0 0 0 0 0 0 0 0 0 0 0 0 0 0 0 0 0 0 0 0 0 0 0 0
0 0 0 -0 -0 -0 -0 0 0 0 0 0 0 0 0 0 0 0 0 0 0 0 0 0 0 0 0 0 0 0 0 0 0 0 0 0 0 0 0 0 0 0 0 0 0 0 0 0 0
0 0 0 -0 -0 -0 -0 0 0 0 0 0 0 0 0 0 0 0 0 0 0 0 0 0 0 0 0 0 0 0 0 0 0 0 0 0 0 0 0 0 0 0 0 0 0 0 0 0 0
0 0 0 0 -0 -0 0 0 0 0 0 0 0 0 0 0 0 0 0 0 0 0 0 0 0 0 0 0 0 0 0 0 0 0 0 0 0 0 0 0 0 0 0 0 0 0 0 0 0
0 0 0 0 0 0 0 0 0 0 0 0 0 0 0 0 0 0 0 0 0 0 0 0 0 0 0 0 0 0 0 0 0 0 0 0 0 0 0 0 0 0 0 0 0 0 0 0 0
0 0 0 0 0 0 0 0 0 0 1 0 0 0 0 0 0 0 0 0 0 0 0 0 0 0 0 0 0 0 0 0 0 0 0 0 0 0 0 0 0 0 0 0 0 0 0 0 0
0 0 0 0 0 0 0 0 0 0 1 0 0 0 0 0 0 0 0 0 0 0 0 0 0 0 0 0 0 0 0 0 0 0 0 0 0 0 0 0 0 0 0 0 0 0 0 0 0
0 0 0 0 0 0 0 0 0 0 1 1 0 0 0 0 0 0 0 0 0 0 0 0 0 0 0 0 0 0 0 0 0 0 0 0 0 0 0 0 0 0 0 0 0 0 0 0 0
0 0 0 0 0 0 0 0 0 1 1 1 1 0 0 0 0 0 0 0 0 0 0 0 0 0 0 0 0 0 0 0 0 0 0 0 0 0 0 0 0 0 0 0 0 0 0 0 0
0 0 0 0 0 0 0 0 0 1 1 1 1 1 0 0 0 0 0 0 0 0 0 0 0 0 0 0 0 0 0 0 0 0 0 0 0 0 0 0 0 0 0 0 0 0 0 0 0
0 0 0 0 0 0 0 0 0 1 2 2 2 1 1 0 0 0 1 1 1 0 0 0 0 0 0 0 0 0 0 0 0 0 0 0 0 0 0 0 0 0 0 0 0 0 0 0 0
0 0 0 0 0 0 0 0 1 1 2 3 3 2 1 1 1 1 1 1 1 1 1 1 1 0 0 0 0 0 0 0 0 0 0 0 0 0 0 0 0 0 0 0 0 0 0 0 0
0 0 0 0 0 0 0 0 1 2 3 3 3 3 2 2 1 1 1 1 1 1 1 1 1 1 1 1 1 1 1 0 0 0 0 0 1 1 1 0 0 0 0 0 0 0 0 0 0
0 0 0 0 0 0 0 0 1 2 2 3 3 3 3 2 2 2 2 2 1 1 1 1 1 1 1 1 1 1 1 1 1 1 1 1 1 1 1 1 1 1 0 0 0 0 0 0 0
0 0 0 0 0 0 0 0 1 1 2 2 3 3 3 3 3 3 3 2 2 2 2 2 2 2 2 2 1 1 1 1 1 1 1 1 1 1 1 1 1 0 0 0 0 0 0 0 0
0 0 0 0 0 0 0 0 0 1 1 1 2 3 4 5 5 5 5 4 3 3 3 3 3 3 2 2 2 1 1 1 1 1 1 0 0 0 0 0 0 0 0 0 0 0 0 0 0
0 0 0 0 0 0 0 0 0 0 0 1 2 3 4 5 6 6 5 5 4 4 4 4 4 3 2 2 1 1 1 1 1 0 0 0 0 0 0 0 0 0 0 0 0 0 0 0 0
0 0 0 0 0 0 0 0 0 0 0 1 1 2 4 6 6 6 5 4 4 4 4 3 3 2 2 1 1 1 1 1 0 0 0 0 0 0 0 0 0 0 0 0 0 0 0 0 0
0 0 0 0 0 0 0 0 0 0 1 1 1 1 3 5 5 4 3 2 2 2 2 2 2 1 1 1 1 1 0 0 0 0 0 0 0 0 0 0 0 0 0 0 0 0 0 0 0
0 0 0 0 0 0 0 0 0 1 1 1 1 2 3 3 3 2 2 1 1 1 1 1 1 1 1 0 0 0 0 0 0 0 0 0 0 0 0 0 0 0 0 0 0 0 0 0 0
0 0 0 0 0 0 0 0 0 1 1 1 1 1 2 2 2 1 1 1 1 1 1 1 0 0 0 0 0 0 0 0 0 0 0 0 0 0 0 0 0 0 0 0 0 0 0 0 0
0 0 0 0 0 0 0 0 0 0 0 0 0 1 1 1 1 1 1 1 1 1 1 1 0 0 0 0 0 0 0 0 0 0 0 0 0 0 0 0 0 0 0 0 0 0 0 0 0
0 0 0 0 0 0 0 0 0 0 0 0 0 0 0 0 0 0 0 0 0 0 0 0 0 0 0 0 0 0 0 0 0 0 0 0 0 0 0 0 0 0 0 0 0 0 0 0 0
0 0 0 0 0 0 0 0 0 0 0 0 0 0 0 0 0 0 0 0 0 0 0 0 0 0 0 0 0 0 0 0 0 0 0 0 0 0 0 0 0 0 0 0 0 0 0 0 0
0 0 0 0 0 0 0 0 0 0 0 0 0 0 0 0 0 0 0 0 0 0 0 0 0 0 0 0 0 0 0 0 0 0 0 0 0 0 0 0 0 0 0 0 0 0 0 0 0
0 0 0 0 0 0 0 0 0 0 0 0 0 0 0 0 0 0 0 0 0 0 0 0 0 0 0 0 0 0 0 0 0 0 0 0 0 0 0 0 0 0 0 0 0 0 0 0 0
Wind_Speed
5 4 2 2 3 5 5 8 8 9 5 7 12 12 10 6 4 5 5 13 17 16 13 15 17 18 17 17 16 15 14 13 11 11 11 11 11 11 11 11 11 9 9 8 8 7 7 6 7
3 2 3 2 4 3 2 7 9 6 7 10 11 10 9 8 8 11 9 16 18 15 11 13 18 18 17 16 16 15 14 13 12 11 10 10 10 10 10 10 10 9 8 7 7 6 6 6 6
3 2 3 3 2 4 7 8 10 4 7 6 7 6 6 8 12 9 11 18 15 13 10 13 20 18 17 16 14 13 13 12 11 11 10 10 10 9 9 9 9 8 7 7 7 6 6 5 5
2 3 4 3 3 4 8 10 7 7 6 8 10 7 5 5 8 12 19 18 15 11 9 13 19 17 16 15 14 14 14 13 11 11 11 11 11 10 10 9 8 7 7 7 6 6 6 6 5
2 4 5 3 4 3 6 11 9 6 4 7 12 8 4 4 18 20 19 17 15 9 8 11 18 17 16 15 16 16 15 14 12 11 11 10 10 11 11 10 8 7 7 7 6 6 5 6 7
4 4 3 2 3 3 10 13 9 10 11 10 12 8 3 10 18 18 17 16 15 13 9 10 18 18 16 15 15 15 15 14 12 12 11 11 10 10 11 11 10 10 9 8 7 6 5 7 8
3 2 2 3 4 5 7 7 9 9 10 10 12 9 6 9 13 16 16 15 14 13 10 8 10 13 16 15 14 15 14 13 12 13 13 12 11 11 11 11 11 11 11 10 9 8 7 7 7
4 3 3 3 4 5 1 4 6 10 8 12 9 11 9 11 13 17 15 13 13 11 9 7 6 7 8 9 14 15 15 14 14 14 14 13 12 11 11 10 10 11 11 11 10 9 9 8 8
2 3 3 3 3 7 9 3 3 5 9 6 6 7 13 17 16 17 15 12 11 11 8 7 7 6 6 7 11 13 14 14 13 11 13 11 5 4 5 9 12 13 13 13 12 10 10 10 10
4 2 7 4 4 7 12 3 4 5 8 6 9 13 19 16 15 16 17 15 13 13 11 9 8 8 7 8 6 4 5 6 6 5 6 4 4 4 7 9 15 15 14 14 14 12 11 9 5
3 6 6 7 9 9 9 6 2 9 4 9 20 22 20 16 13 13 14 13 13 14 12 10 9 8 7 5 4 3 3 4 5 6 6 4 4 4 5 4 7 9 10 7 8 8 5 5 4
5 9 10 10 12 9 9 5 3 4 8 15 22 23 19 17 14 13 14 13 13 13 12 11 10 9 8 5 5 5 4 4 5 6 6 5 3 4 4 4 4 4 4 4 4 3 5 6 6
7 12 16 17 14 10 9 4 3 2 14 17 20 19 17 16 12 11 12 13 13 12 11 11 10 9 8 6 5 5 5 5 6 5 6 7 5 5 4 3 4 5 4 4 4 4 5 6 6
8 9 12 13 14 8 7 4 6 3 16 18 19 16 16 15 14 10 12 12 13 12 11 12 10 9 7 5 5 4 4 5 5 6 8 8 5 4 4 3 3 4 4 5 5 6 5 5 5
5 8 10 8 7 7 3 4 4 10 16 17 16 16 17 14 14 14 15 14 13 11 11 12 11 9 7 6 4 3 3 2 3 3 5 5 5 5 4 3 3 4 4 4 4 5 4 4 4
6 5 6 10 6 7 1 7 3 12 16 13 12 13 14 14 15 13 14 13 11 10 11 12 11 9 7 6 4 3 2 1 0 0 2 3 5 6 4 4 4 4 3 3 3 4 4 5 5
5 3 6 10 8 8 4 7 7 12 14 12 11 10 12 11 9 8 10 12 11 10 11 11 8 8 7 6 4 3 1 0 1 1 1 1 2 4 4 4 4 4 3 3 3 3 4 5 5
5 5 7 9 10 9 10 10 9 15 15 14 11 9 9 11 9 8 9 10 9 9 10 10 8 7 7 5 3 2 1 1 1 2 3 2 2 2 3 3 4 4 4 4 4 5 5 5 5
7 8 10 10 8 5 8 11 11 15 12 10 9 10 11 10 8 8 8 10 9 9 10 9 7 6 6 4 3 2 1 1 2 2 1 1 2 3 2 3 4 5 5 6 6 5 6 6 4
4 4 5 7 9 6 4 2 7 12 16 17 17 15 14 11 9 8 6 6 7 7 7 6 6 5 4 3 3 2 2 1 1 1 2 3 3 3 3 5 6 6 6 7 7 6 5 5 4
5 4 4 4 7 9 9 8 2 3 5 10 14 14 13 15 14 10 8 8 8 7 7 7 7 6 5 4 3 3 3 2 2 3 2 3 3 4 5 6 7 7 7 7 8 7 8 6 5
5 6 2 4 6 5 5 4 7 3 3 3 6 7 8 7 7 7 8 9 9 8 8 7 7 6 6 5 4 4 2 1 1 0 1 3 4 5 6 7 7 7 6 7 8 7 6 6 6
4 6 2 2 3 3 4 1 7 8 8 6 3 2 4 5 4 4 5 7 7 7 7 7 7 6 6 5 5 5 3 2 0 1 3 4 4 5 6 7 6 5 5 6 7 7 7 6 6
3 4 7 6 6 4 4 1 3 6 9 9 8 10 10 8 6 5 5 4 4 4 5 5 6 6 5 5 5 6 5 3 1 1 2 3 3 4 6 6 5 4 4 4 4 4 5 5 4
6 6 6 7 6 4 5 2 2 6 9 10 10 10 9 7 5 4 4 3 2 3 4 4 5 4 4 5 5 5 5 4 2 1 2 3 3 3 4 4 4 4 4 3 2 2 2 2 3
3 7 6 4 4 5 5 3 3 5 6 6 6 5 6 5 4 4 4 4 4 4 4 3 4 5 5 5 5 4 4 2 1 1 2 3 3 3 4 3 3 4 4 4 3 2 2 2 2
3 3 5 6 1 2 4 1 3 3 2 2 2 1 1 3 3 2 2 1 1 2 1 4 5 4 3 3 4 3 3 2 1 2 2 3 3 3 3 3 2 3 3 3 3 2 3 2 2
6 5 6 5 1 3 5 5 4 5 6 5 4 5 5 4 4 5 5 4 2 3 2 3 4 3 1 2 2 3 3 2 2 2 3 4 4 3 3 3 3 3 3 3 3 2 2 2 2
4 5 7 5 5 5 4 8 9 10 8 8 8 8 6 5 4 5 5 3 2 2 3 3 3 3 1 0 2 5 4 3 2 1 2 3 4 4 4 4 3 3 2 3 3 3 2 2 2
6 7 8 7 6 6 4 12 10 7 7 7 8 7 6 5 3 5 5 2 2 3 3 4 3 3 2 2 4 5 5 4 3 1 1 2 4 3 3 3 4 4 4 3 4 4 3 2 2
Wind_Direction
272 248 196 4 47 50 7 319 296 307 30 56 73 84 83 61 123 157 131 143 140 144 151 150 149 150 150 150 149 149 146 140 133 128 123 123 124 123 121 124 127 129 128 124 118 113 111 123 134
284 241 129 49 74 83 296 284 279 289 145 127 83 73 74 72 86 114 125 143 144 143 148 151 151 152 155 155 154 152 151 149 146 142 138 138 138 136 132 130 132 135 136 136 140 137 131 133 147
268 207 99 88 117 172 197 238 246 214 153 104 86 69 74 105 119 135 141 144 143 145 149 155 152 155 159 159 157 155 156 157 157 155 156 154 151 150 145 141 142 148 149 147 150 156 153 153 157
344 34 54 73 237 222 184 219 222 142 89 78 100 78 63 107 125 138 141 147 144 145 150 156 154 156 160 163 163 164 166 168 169 168 171 167 165 166 160 156 153 155 158 156 154 162 168 176 184
53 60 42 350 289 156 189 225 213 140 95 100 103 90 48 65 124 138 147 149 144 146 154 158 157 158 161 167 172 173 173 175 173 171 176 176 175 176 173 169 166 163 162 163 165 176 189 194 200
32 59 62 296 300 208 192 196 155 122 117 117 109 106 92 121 134 147 147 146 147 151 155 160 162 162 164 167 173 178 178 179 178 176 179 180 180 183 180 178 177 177 178 182 185 190 204 204 208
104 75 237 251 272 261 209 175 143 139 143 147 132 108 127 145 143 146 142 143 146 150 154 160 164 166 168 169 170 175 176 176 176 177 180 183 185 185 186 187 190 190 192 199 201 202 210 209 210
145 93 289 294 290 294 215 129 133 134 125 131 131 133 158 175 142 138 140 141 145 149 154 156 159 164 168 172 175 176 179 179 181 183 186 190 192 194 198 197 204 205 210 219 218 215 223 225 224
35 51 260 248 312 332 335 50 105 93 114 143 131 142 150 153 138 136 142 145 151 155 159 158 162 165 169 175 183 180 182 184 187 190 194 195 200 206 216 221 221 222 224 229 232 227 229 234 236
112 188 239 217 303 310 309 321 147 110 96 87 93 115 134 147 144 144 153 160 162 165 168 171 174 176 175 183 181 179 176 178 187 198 207 202 199 214 228 237 236 237 236 235 235 235 235 238 234
198 218 259 281 283 288 296 312 102 127 135 152 140 142 146 149 150 149 158 166 167 170 173 179 182 184 183 185 170 186 184 184 196 206 214 214 213 223 234 233 242 245 243 235 236 232 229 232 226
266 273 277 278 277 280 281 307 52 150 174 155 145 148 149 157 161 159 160 166 166 173 179 180 183 184 190 190 183 192 196 199 204 210 215 213 217 228 232 227 226 230 230 228 229 229 231 238 239
261 267 272 273 274 267 269 278 94 38 140 142 143 147 153 161 167 165 163 165 165 173 179 183 188 189 188 192 192 199 205 206 208 203 209 211 211 223 225 220 225 225 221 228 229 228 232 237 243
256 268 273 271 270 267 260 257 104 120 140 146 150 152 156 167 173 170 167 169 173 174 174 182 190 194 190 191 196 205 211 214 203 210 210 205 206 210 211 210 209 213 218 225 227 223 226 232 228
266 278 288 286 278 268 260 292 143 156 149 151 157 158 160 173 180 180 177 174 177 178 173 181 191 193 188 187 186 168 175 172 172 191 193 200 208 208 205 213 219 219 218 226 235 229 226 236 233
335 330 300 290 292 292 261 253 190 162 150 152 159 164 166 179 186 182 175 173 176 173 174 184 192 188 185 173 163 155 150 102 246 206 198 212 212 211 209 219 235 245 248 243 237 225 225 240 241
347 322 286 290 288 281 261 244 187 173 158 155 159 164 170 179 183 172 167 172 179 178 176 182 183 176 179 172 163 164 164 230 280 318 265 248 227 206 203 223 236 245 252 251 244 232 221 236 243
264 284 289 280 279 273 259 241 186 178 172 165 161 162 169 173 174 159 159 174 187 187 179 179 178 172 167 162 158 149 144 257 243 229 227 226 230 206 191 214 231 236 243 246 231 232 232 231 237
251 271 277 273 273 281 262 245 196 174 173 167 167 169 169 164 160 159 168 184 186 185 179 177 165 162 158 151 153 160 188 235 239 235 260 346 313 300 270 252 246 236 233 237 229 225 236 238 220
263 283 301 310 325 343 330 24 148 169 181 183 180 180 175 163 161 163 166 171 176 172 160 148 140 136 137 124 126 137 146 156 135 56 48 33 4 333 300 263 252 246 244 250 243 232 235 236 201
329 315 311 325 345 15 19 355 47 187 201 203 195 187 180 173 169 161 142 130 123 116 112 109 111 112 109 111 112 94 78 57 44 40 15 338 335 326 302 279 261 252 242 246 244 233 229 235 227
331 320 340 45 44 347 39 334 314 12 38 243 226 203 198 180 155 142 127 116 111 108 103 102 102 104 109 105 97 99 103 100 94 191 305 320 345 336 319 298 279 265 251 245 242 230 218 214 221
276 300 326 63 84 19 22 90 299 5 10 328 285 46 23 22 42 82 102 111 115 121 123 124 117 119 122 119 116 106 100 102 84 8 350 340 329 326 330 323 307 286 265 248 237 223 218 212 209
289 8 15 35 58 6 304 287 299 17 349 343 31 44 34 24 26 34 42 59 87 106 119 133 136 140 133 118 113 119 118 107 76 339 320 315 315 320 331 333 332 323 303 273 253 242 237 236 232
50 67 25 8 12 277 325 21 77 38 29 34 40 38 32 16 11 29 44 37 38 74 96 126 139 126 115 117 125 133 132 125 132 244 304 322 324 315 316 333 345 346 347 346 338 315 304 276 259
35 111 142 186 230 281 327 307 93 79 72 60 51 35 25 1 348 351 4 9 10 22 52 84 116 117 127 135 138 133 120 108 84 21 348 327 303 292 301 322 343 349 352 354 345 324 306 281 265
99 105 158 138 195 275 288 359 135 152 130 117 110 80 284 280 268 256 263 268 27 350 37 95 110 115 133 141 127 116 109 95 41 329 323 308 297 301 315 322 319 327 339 350 347 326 309 292 297
107 130 84 96 160 273 298 298 262 235 224 228 233 237 249 271 272 256 238 225 177 175 155 117 117 121 147 156 137 133 142 162 214 262 288 293 296 302 314 323 315 312 325 334 342 336 355 39 25
120 81 94 98 137 164 242 258 235 227 215 215 232 243 250 254 268 268 251 224 175 146 139 129 111 92 48 96 143 141 150 156 156 185 284 296 294 294 296 303 305 307 308 326 340 335 349 50 48
144 150 141 151 201 192 205 256 253 234 220 211 223 226 225 222 237 271 260 209 144 113 100 93 82 72 57 77 136 147 148 142 142 174 275 307 316 303 295 311 319 324 331 343 338 331 341 20 65